Broken Bow, NE

7:02 PM CDT on July 27, 2017 (GMT -0500)
Broken Bow Municipal

Weather History for KBBW - May, 2013

Change the Weather History Date:

Thursday, May 2, 2013

  Actual Average Record
Temperature  
Mean Temperature 41 °F 54 °F  
Max Temperature 52 °F 67 °F 91 °F (1955)
Min Temperature 29 °F 41 °F 20 °F (1967)
Degree Days  
Heating Degree Days 24 11  
Month to date heating degree days 53 23  
Cooling Degree Days 0 0  
Month to date cooling degree days 0 0  
Year to date cooling degree days 0 1  
Moisture  
Dew Point 27 °F    
Average Humidity 58    
Maximum Humidity 85    
Minimum Humidity 31    
Precipitation  
Precipitation 0.00 in 0.13 in 1.16 in (1983)
Sea Level Pressure  
Sea Level Pressure 30.59 in    
Wind  
Wind Speed 8 mph (North)    
Max Wind Speed 21 mph    
Max Gust Speed 29 mph    
Visibility 10 miles    
Events      
T = Trace of Precipitation, MM = Missing Value Source: NWS Daily Summary

Daily Weather History Graph

Daily Weather History Graph

Search for Another Location

Airport or City:

Trip Planner

Search our weather history database for the weather conditions in past years. The results will help you decide how hot, cold, wet, or windy it might be!

Date:

Astronomy

May. 02, 2013 Rise Set
Actual Time 6:34 AM CDT 8:37 PM CDT
Civil Twilight 6:03 AM CDT 9:07 PM CDT
Nautical Twilight 5:26 AM CDT 9:45 PM CDT
Astronomical Twilight 4:46 AM CDT 10:25 PM CDT
Moon 2:27 AM CDT (5/2) 1:24 PM CDT (5/2)
Length of Visible Light 15h 04m
Length of Day
14h 03m
Waning Gibbous, 47% of the Moon is Illuminated
May 2
Waning Gibbous
May 9
New
May 17
First Quarter
May 24
Full
May 31
Last Quarter

Hourly Weather History & Observations

Time (CDT) Temp. Windchill Dew Point Humidity Pressure Visibility Wind Dir Wind Speed Gust Speed Precip Events Conditions
12:53 AM 37.0 °F 30.4 °F 26.1 °F 65% 30.58 in 10.0 mi NNE 9.2 mph 18.4 mph N/A   Overcast
1:53 AM 35.1 °F 28.6 °F 28.0 °F 76% 30.61 in 10.0 mi North 8.1 mph - N/A   Overcast
2:53 AM 35.1 °F 27.9 °F 28.0 °F 76% 30.60 in 10.0 mi North 9.2 mph - N/A   Overcast
3:53 AM 34.0 °F 28.0 °F 28.0 °F 79% 30.63 in 10.0 mi North 6.9 mph - N/A   Overcast
4:53 AM 34.0 °F 28.8 °F 28.0 °F 79% 30.65 in 10.0 mi NNW 5.8 mph - N/A   Overcast
5:53 AM 34.0 °F 27.2 °F 27.0 °F 75% 30.66 in 10.0 mi NNW 8.1 mph - N/A   Overcast
6:53 AM 33.1 °F 26.1 °F 28.0 °F 82% 30.67 in 10.0 mi North 8.1 mph - N/A   Partly Cloudy
7:53 AM 35.1 °F 27.4 °F 28.0 °F 76% 30.69 in 10.0 mi NNW 10.4 mph - N/A   Partly Cloudy
8:53 AM 37.0 °F 30.4 °F 30.0 °F 76% 30.70 in 10.0 mi North 9.2 mph - N/A   Partly Cloudy
9:53 AM 39.9 °F 32.5 °F 28.9 °F 65% 30.69 in 10.0 mi North 12.7 mph - N/A   Clear
10:53 AM 43.0 °F 36.0 °F 28.9 °F 58% 30.67 in 10.0 mi North 13.8 mph 20.7 mph N/A   Clear
11:53 AM 45.0 °F 39.7 °F 28.9 °F 53% 30.67 in 10.0 mi NNW 10.4 mph 20.7 mph N/A   Clear
12:53 PM 46.9 °F - 27.0 °F 46% 30.64 in 10.0 mi North 12.7 mph 20.7 mph N/A   Partly Cloudy
1:53 PM 48.9 °F - 27.0 °F 43% 30.61 in 10.0 mi North 13.8 mph 20.7 mph N/A   Partly Cloudy
2:53 PM 50.0 °F - 25.0 °F 38% 30.58 in 10.0 mi North 10.4 mph - N/A   Scattered Clouds
3:53 PM 48.9 °F - 23.0 °F 36% 30.56 in 10.0 mi North 13.8 mph - N/A   Mostly Cloudy
4:53 PM 50.0 °F - 24.1 °F 36% 30.53 in 10.0 mi NNE 9.2 mph - N/A   Mostly Cloudy
5:53 PM 50.0 °F - 23.0 °F 35% 30.51 in 10.0 mi NE 13.8 mph 18.4 mph N/A   Mostly Cloudy
6:53 PM 48.9 °F - 21.9 °F 35% 30.50 in 10.0 mi NNE 8.1 mph - N/A   Overcast
7:53 PM 48.0 °F - 19.9 °F 33% 30.48 in 10.0 mi NNE 4.6 mph - N/A   Partly Cloudy
8:53 PM 39.9 °F - 27.0 °F 60% 30.49 in 10.0 mi Calm Calm - N/A   Clear
9:53 PM 35.1 °F - 30.0 °F 82% 30.50 in 10.0 mi Calm Calm - N/A   Mostly Cloudy
10:53 PM 33.1 °F - 28.9 °F 85% 30.48 in 10.0 mi Calm Calm - N/A   Mostly Cloudy
11:53 PM 32.0 °F - 28.0 °F 85% 30.47 in 10.0 mi Calm Calm - N/A   Partly Cloudy